Regional Weather Roundup
Issued by NWS

Home | Current Version | Previous Version | Text Only | Print | Product List | Glossary Off
Versions: 1 2 3 4 5 6 7 8 9 10 11 12 13 14 15 16 17 18 19 20 21 22 23 24 25 26 27 28 29 30 31 32 33 34 35 36 37 38 39 40 41 42 43 44 45 46 47 48 49 50

963
ASUS43 KLMK 200602
RWRKY
KENTUCKY REGIONAL WEATHER ROUNDUP
NATIONAL WEATHER SERVICE LOUISVILLE KY
200 AM EDT SUN MAY 20 2018

NOTE "FAIR" INDICATES FEW OR NO CLOUDS BELOW 12,000 FEET
WITH NO SIGNIFICANT WEATHER AND/OR OBSTRUCTIONS TO VISIBILITY.

KYZ001>023-026-027-061>063-070>075-200700-
WESTERN AND SOUTH CENTRAL KENTUCKY

CITY           SKY/WX    TMP DP  RH WIND       PRES   REMARKS
PADUCAH        FAIR      66  63  90 CALM      30.05F
HENDERSON      NOT AVBL
OWENSBORO      FAIR      72  65  78 W12       30.05R
HOPKINSVILLE   MOCLDY    66  66 100 W5        30.06R
BOWLING GREEN  FAIR      72  66  81 W3        30.06R
GLASGOW        NOT AVBL
$$

KYZ024-025-028>034-038-045-046-053-200700-
NORTH CENTRAL KENTUCKY

CITY           SKY/WX    TMP DP  RH WIND       PRES   REMARKS
LOUISVILLE/SDF FAIR      71  65  81 CALM      30.01R
LOUISVILLE/LOU FAIR      67  67 100 CALM      30.01S
FORT KNOX      FAIR      65  65 100 CALM      30.03R
$$

KYZ035>037-039>044-047>052-055>060-089>105-200700-
NORTHEAST KENTUCKY

CITY           SKY/WX    TMP DP  RH WIND       PRES   REMARKS
LEXINGTON      FAIR      67  64  90 S6        30.03S
COVINGTON      MOCLDY    68  65  90 CALM      30.00S
FRANKFORT      FAIR      65  62  90 CALM      30.01S
$$

KYZ054-064>069-076>088-106>120-200700-
SOUTHEAST KENTUCKY

CITY           SKY/WX    TMP DP  RH WIND       PRES   REMARKS
JACKSON        FAIR      65  64  97 CALM      30.07S FOG
LONDON         FAIR      65  65 100 SE3       30.06F
SOMERSET       NOT AVBL
MIDDLESBORO    CLOUDY    66  66 100 CALM      30.11R FOG
MONTICELLO     FAIR      66  66 100 W14       30.08R
$$





USA.gov is the U.S. government's official web portal to all federal, state and local government web resources and services.